[[{"header":{"parameterUnit":"m.s-1","parameterCategory":1,"la1":30.2991,"la2":30.254,"lo1":-89.0895,"lo2":-89.0444,"dy":0.0017,"dx":0.0017,"nx":28,"ny":28,"refTime":"2026-01-01T09:00:00:Z","depth":0,"parameterNumber":2,"parameterNumberName":"U-component_of_WINDS"},"data":[0,0,0,0,0,0,0,0,0,0,0,0,0,0,0,0,0,0,0,0,0,0,0,0,0,0,0,0,0,0,0,0,0,0,0,0,0,0,0,0,0,0,0,0,0,0,0,0,0,0,0,0,0,0,0,0,0,0,0.4404,0.4406,0,0.4549,0.455,0.4552,0.4603,0.4602,0.4602,0.4601,0.4756,0.4761,0.4765,0,0,0,0,0,0,0,0,0,0,0,0,0,0.4179,0.4183,0.4404,0.4406,0.4408,0.4548,0.455,0.4552,0.4603,0.4602,0.4602,0.4601,0.4755,0.476,0.4766,0,0,0,0,0,0,0,0,0,0,0,0,0,0.4295,0.4184,0.4404,0.445,0.4455,0.4548,0.455,0.4553,0.4603,0.4602,0.4601,0.4601,0.4753,0.476,0.4767,0.4826,0,0,0.4788,0.4791,0,0,0,0,0,0,0,0,0.4289,0.4304,0.4441,0.4447,0.4453,0.4557,0.4528,0.4645,0.4603,0.4547,0.4601,0.46,0.4691,0.4703,0.4732,0.4833,0.484,0.4788,0.4793,0.4796,0.4798,0,0,0,0,0,0,0,0.4281,0.4298,0.4461,0.4443,0.445,0.4465,0.4481,0.455,0.4622,0.4552,0.4556,0.4572,0.4694,0.4725,0.4736,0.4842,0.4788,0.4794,0.4799,0.4801,0.5002,0.5004,0,0,0,0,0,0,0.4264,0.4291,0.4457,0.4466,0.4367,0.447,0.4488,0.4524,0.4622,0.4635,0.4573,0.4574,0.4714,0.4728,0.4742,0.482,0.4796,0.4802,0.4806,0.5001,0.5003,0.5004,0,0,0,0,0,0,0.4259,0.4278,0.4451,0.4379,0.4402,0.4475,0.4516,0.4528,0.4559,0.4637,0.4651,0.4591,0.4714,0.4732,0.4805,0.4826,0.4805,0.4812,0.5,0.5002,0.5003,0.4975,0,0,0,0,0,0,0.4252,0.4276,0.4298,0.4379,0.4406,0.4509,0.4517,0.4531,0.457,0.4573,0.4658,0.4671,0.4714,0.4794,0.4812,0.4835,0.4817,0.4998,0.5001,0.5003,0.4974,0.4975,0.4976,0,0,0,0,0,0.4244,0.4285,0.4298,0.4318,0.4434,0.451,0.4526,0.4573,0.4571,0.4595,0.4645,0.4668,0.482,0.4801,0.4821,0.4847,0.4997,0.5,0.5003,0.4974,0.4975,0.4976,0,0,0,0,0,0,0.4206,0.4296,0.4312,0.438,0.4437,0.4518,0.455,0.4572,0.4632,0.4633,0.4691,0.471,0.4779,0.482,0.4797,0.4911,0.491,0.4917,0.4881,0.4883,0.4884,0.4874,0.4823,0,0,0,0,0,0.4205,0.4257,0.4334,0.4387,0.4414,0.4477,0.4512,0.4543,0.4605,0.463,0.4686,0.4747,0.4809,0.4848,0.4909,0.498,0.5001,0.5008,0.5009,0.5009,0.5015,0.5058,0.5063,0.5013,0.5013,0.5012,0,0,0.4204,0.426,0.429,0.438,0.4428,0.4483,0.4497,0.4554,0.4596,0.4639,0.4711,0.4754,0.4827,0.4899,0.4934,0.4936,0.5033,0.5013,0.5012,0.5018,0.5061,0.5066,0.507,0.5014,0.5014,0.5014,0,0,0.4232,0.4278,0.4328,0.4375,0.4446,0.4488,0.4499,0.4578,0.4608,0.468,0.4714,0.4766,0.4871,0.4921,0.4961,0.5008,0.5033,0.5027,0.5033,0.5074,0.5078,0.5082,0.5101,0.5107,0.5032,0.5032,0.5032,0,0.4223,0.4304,0.4351,0.4407,0.4447,0.4486,0.4539,0.4583,0.4671,0.4699,0.4699,0.4832,0.4883,0.4969,0.4981,0.5011,0.5028,0.5018,0.5073,0.5078,0.5082,0.5101,0.5108,0.5031,0.5031,0.5031,0.5031,0,0.4291,0.4347,0.438,0.4462,0.4505,0.4559,0.4616,0.4655,0.4683,0.4725,0.48,0.4863,0.4938,0.4961,0.4989,0.5052,0.5051,0.5061,0.5062,0.5085,0.5104,0.5111,0.5029,0.503,0.503,0.503,0,0,0.4299,0.4406,0.4417,0.4456,0.4537,0.4583,0.464,0.4711,0.4745,0.4805,0.4856,0.4943,0.4954,0.4998,0.5033,0.5069,0.5105,0.5075,0.5078,0.508,0.5181,0.5174,0.5181,0.5121,0.5122,0.5124,0.5176,0,0.4338,0.4439,0.4483,0.4565,0.4619,0.4657,0.4707,0.4764,0.4805,0.4859,0.4906,0.4968,0.4976,0.5003,0.504,0.5092,0.5126,0.5089,0.5172,0.5174,0.5154,0.5191,0.5183,0.5229,0.5183,0.5184,0.5185,0,0.4398,0.4456,0.4542,0.4619,0.4643,0.4687,0.4757,0.4807,0.4873,0.4901,0.4951,0.4984,0.5048,0.5043,0.5134,0.5107,0.5144,0.5175,0.5178,0.5189,0.5182,0.5205,0.5245,0.5252,0.5197,0.5196,0.5195,0,0.4397,0.4497,0.4562,0.4594,0.4684,0.4714,0.4754,0.4819,0.486,0.4922,0.4949,0.5019,0.5057,0.5111,0.5163,0.5154,0.525,0.5249,0.5278,0.5276,0.5297,0.5296,0.5345,0.5317,0.5317,0.5317,0.5317,0,0.4438,0.4489,0.4563,0.4604,0.4664,0.4715,0.4774,0.4817,0.4875,0.4926,0.4964,0.5012,0.5076,0.5134,0.5175,0.5245,0.5262,0.5288,0.5299,0.5286,0.5283,0.5312,0.5311,0.5319,0.5319,0.5318,0.5318,0,0.4447,0.4499,0.4573,0.4652,0.4673,0.4714,0.4783,0.4825,0.4868,0.4933,0.4951,0.5019,0.5089,0.5145,0.5236,0.5264,0.5338,0.535,0.5315,0.5321,0.5347,0.5345,0.542,0.5433,0.5393,0.5394,0.5394,0,0.4471,0.4511,0.4594,0.463,0.4669,0.4726,0.4768,0.4821,0.4863,0.4942,0.4975,0.5047,0.5107,0.5216,0.5276,0.5346,0.5361,0.5382,0.5372,0.5358,0.5364,0.5362,0.5367,0.5384,0.5384,0.5384,0.5384,0,0.4507,0.453,0.4587,0.4654,0.4702,0.4757,0.4814,0.4842,0.4906,0.4952,0.5021,0.5068,0.516,0.5232,0.5309,0.5353,0.538,0.5386,0.5397,0.5385,0.5365,0.5378,0.532,0.5385,0.5385,0.5385,0.5385,0.5385,0.4526,0.4565,0.4629,0.4692,0.474,0.4792,0.4836,0.4884,0.4942,0.502,0.5048,0.5121,0.5189,0.5295,0.5339,0.5399,0.5402,0.5417,0.5421,0.5424,0.5424,0.5353,0.5413,0.5413,0.5413,0.5413,0.5413,0,0.4566,0.4609,0.4667,0.4744,0.4794,0.4813,0.4877,0.4918,0.4981,0.5041,0.5098,0.518,0.525,0.5315,0.5389,0.5424,0.5439,0.5442,0.5441,0.5452,0.5416,0.54,0.5429,0.5429,0.5429,0.5429,0.5429,0.5429,0.4593,0.466,0.4691,0.4783,0.4827,0.4897,0.4932,0.4982,0.503,0.5118,0.5176,0.5217,0.528,0.5359,0.5425,0.5442,0.5469,0.5469,0.549,0.5456,0.5454,0.5452,0.5437,0.5474,0.5474,0.5522,0.5522,0.5523]},{"header":{"parameterUnit":"m.s-1","parameterCategory":1,"la1":30.2991,"la2":30.254,"lo1":-89.0895,"lo2":-89.0444,"dy":0.0017,"dx":0.0017,"nx":28,"ny":28,"refTime":"2026-01-01T09:00:00:Z","depth":0,"parameterNumber":3,"parameterNumberName":"V-component_of_WINDS"},"data":[0,0,0,0,0,0,0,0,0,0,0,0,0,0,0,0,0,0,0,0,0,0,0,0,0,0,0,0,0,0,0,0,0,0,0,0,0,0,0,0,0,0,0,0,0,0,0,0,0,0,0,0,0,0,0,0,0,0,4.4339,4.4341,0,4.4454,4.4456,4.4457,4.4462,4.446,4.4459,4.4458,4.4572,4.4576,4.458,0,0,0,0,0,0,0,0,0,0,0,0,0,4.4121,4.4125,4.4339,4.4341,4.4342,4.4454,4.4456,4.4457,4.4462,4.446,4.4459,4.4457,4.457,4.4575,4.4581,0,0,0,0,0,0,0,0,0,0,0,0,0,4.4224,4.4127,4.4339,4.4358,4.4361,4.4454,4.4456,4.4458,4.4462,4.446,4.4458,4.4456,4.4569,4.4575,4.4581,4.4662,0,0,4.4601,4.4604,0,0,0,0,0,0,0,0,4.4218,4.4232,4.4354,4.4357,4.436,4.4442,4.4421,4.4526,4.4463,4.4424,4.4458,4.4455,4.453,4.4539,4.4565,4.4667,4.4672,4.4602,4.4606,4.4608,4.461,0,0,0,0,0,0,0,4.4211,4.4227,4.4385,4.4356,4.436,4.436,4.4372,4.4441,4.4487,4.4427,4.4428,4.4441,4.4531,4.4559,4.4568,4.4674,4.4601,4.4607,4.4611,4.4614,4.4851,4.4853,0,0,0,0,0,0,4.4201,4.4221,4.4381,4.4388,4.4283,4.4366,4.4379,4.4417,4.4486,4.4495,4.4443,4.4441,4.4549,4.4561,4.4572,4.4674,4.4608,4.4614,4.4618,4.4848,4.4851,4.4854,0,0,0,0,0,0,4.4196,4.4215,4.4376,4.4305,4.4326,4.4372,4.4414,4.4421,4.4449,4.4498,4.4506,4.4463,4.4548,4.4563,4.4641,4.4678,4.4617,4.4623,4.4845,4.4849,4.4853,4.4876,0,0,0,0,0,0,4.419,4.4213,4.4245,4.4306,4.4329,4.4444,4.4416,4.4425,4.446,4.4459,4.4519,4.4527,4.4547,4.4631,4.4647,4.4686,4.4628,4.4842,4.4847,4.4851,4.4872,4.488,4.4887,0,0,0,0,0,4.4182,4.4245,4.4246,4.4265,4.437,4.4446,4.4459,4.4482,4.4463,4.4496,4.4527,4.4525,4.467,4.4639,4.4657,4.4698,4.484,4.4846,4.4851,4.4869,4.4878,4.4886,0,0,0,0,0,0,4.4185,4.4253,4.4255,4.434,4.4388,4.4446,4.4488,4.4491,4.4544,4.454,4.4565,4.4579,4.4657,4.4684,4.4648,4.4781,4.4753,4.4762,4.476,4.477,4.4777,4.477,4.4634,0,0,0,0,0,4.4196,4.4253,4.4309,4.4379,4.4402,4.4441,4.4475,4.4489,4.4538,4.4558,4.4595,4.4642,4.4699,4.4735,4.479,4.4875,4.489,4.4913,4.492,4.4926,4.4934,4.4984,4.4996,4.4872,4.4872,4.4872,0,0,4.4219,4.4263,4.4297,4.4381,4.4419,4.4477,4.4458,4.4519,4.4563,4.4566,4.4644,4.4672,4.4727,4.481,4.4848,4.4835,4.4971,4.4932,4.4937,4.4942,4.4991,4.5003,4.5013,4.4876,4.4875,4.4874,0,0,4.4291,4.4329,4.4394,4.4433,4.4492,4.4517,4.4532,4.4591,4.4612,4.4689,4.4694,4.4745,4.4841,4.4881,4.4914,4.5003,4.5004,4.5019,4.5058,4.5107,4.5117,4.5126,4.516,4.5172,4.5027,4.5027,4.5027,0,4.4312,4.4401,4.4425,4.4489,4.4526,4.4533,4.4599,4.4635,4.4708,4.4733,4.4718,4.4841,4.4877,4.4971,4.4993,4.5018,4.5038,4.5014,4.5113,4.5123,4.5131,4.5165,4.5177,4.5029,4.5029,4.5028,4.5028,0,4.4425,4.4487,4.4531,4.4605,4.4646,4.471,4.4743,4.4783,4.4793,4.482,4.49,4.4945,4.501,4.5032,4.5042,4.5128,4.5119,4.5108,4.5081,4.5145,4.5177,4.5189,4.5031,4.5031,4.503,4.503,0,0,4.4503,4.459,4.4607,4.4641,4.4707,4.4755,4.4819,4.4885,4.4919,4.4969,4.5024,4.5106,4.5098,4.5135,4.5149,4.5191,4.5263,4.5176,4.5178,4.5193,4.5364,4.5374,4.5389,4.5263,4.5266,4.5267,4.5361,0,4.4585,4.4702,4.4726,4.4827,4.4885,4.4894,4.495,4.4996,4.5023,4.5077,4.5105,4.5165,4.5147,4.517,4.5213,4.5245,4.5298,4.5238,4.5316,4.5319,4.5306,4.5405,4.5415,4.5501,4.5373,4.5375,4.5377,0,4.4696,4.4752,4.4859,4.492,4.4946,4.4996,4.5059,4.5109,4.5163,4.5179,4.5222,4.5232,4.53,4.5268,4.5362,4.5321,4.5354,4.5375,4.5379,4.5389,4.5354,4.5421,4.5528,4.5543,4.5396,4.5394,4.5393,0,4.4747,4.4847,4.4926,4.4954,4.5027,4.5062,4.5094,4.5145,4.5184,4.5238,4.5264,4.5324,4.5359,4.5405,4.5432,4.5406,4.5525,4.5495,4.5542,4.5542,4.5569,4.5568,4.5687,4.5585,4.5585,4.5585,4.5585,0,4.4837,4.4903,4.495,4.4998,4.5073,4.51,4.5173,4.5203,4.5249,4.5304,4.5313,4.5364,4.5394,4.545,4.547,4.5547,4.5561,4.5578,4.5583,4.5579,4.5577,4.5603,4.5599,4.5588,4.5588,4.5587,4.5586,0,4.4907,4.494,4.5027,4.5089,4.5106,4.5159,4.5212,4.5259,4.5286,4.5355,4.5373,4.5416,4.5482,4.5512,4.5593,4.5607,4.5695,4.5694,4.5678,4.5681,4.5728,4.5724,4.587,4.5892,4.5773,4.5774,4.5775,0,4.4964,4.5015,4.5084,4.5122,4.5155,4.5216,4.5256,4.5284,4.5326,4.5391,4.5431,4.5498,4.5553,4.5658,4.5696,4.5758,4.5761,4.5808,4.577,4.5766,4.5766,4.5764,4.577,4.5815,4.5817,4.5817,4.5818,0,4.5062,4.5077,4.5136,4.5201,4.5249,4.5301,4.5352,4.5383,4.5419,4.5465,4.5534,4.5577,4.5661,4.5727,4.5793,4.5824,4.5829,4.5829,4.5845,4.5842,4.5832,4.5842,4.57,4.5827,4.5826,4.5825,4.5825,4.5824,4.513,4.5177,4.5234,4.5299,4.5341,4.5389,4.5438,4.5473,4.5531,4.5603,4.5615,4.5689,4.5742,4.583,4.5865,4.5923,4.5912,4.5932,4.5938,4.5944,4.5949,4.5821,4.5934,4.5934,4.5934,4.5933,4.5933,0,4.5232,4.5269,4.5329,4.5402,4.5454,4.5453,4.551,4.5554,4.5619,4.5669,4.5724,4.5804,4.5869,4.5913,4.5979,4.6017,4.6021,4.6034,4.6033,4.6041,4.5953,4.5935,4.603,4.603,4.603,4.603,4.603,4.603,4.5291,4.5373,4.5395,4.5497,4.5534,4.5608,4.5641,4.5685,4.5726,4.5816,4.5871,4.5899,4.5947,4.6017,4.6077,4.6089,4.6114,4.6128,4.6139,4.6057,4.6047,4.6037,4.6021,4.6132,4.6132,4.6223,4.6224,4.6224]}]]